Location: Moscow
(55.7500°N, 37.5830°E)
Time: 04:14:45
(UTC+03:00)

Kosmos-337 - Pass Details

Date: 10 July 2022
Orbit: 1467 x 1552 km, 74.0° (Epoch: 13 August)

Event Time Altitude Azimuth Distance (km) Brightness Sun altitude
Rises 22:03:53 0° 321° (NW) 4,736 ? -5.7°
Reaches altitude 10° 22:07:11 10° 329° (NNW) 3,751 ? -6.0°
Maximum altitude 22:15:44 40° 37° (NE) 2,153 ? -6.7°
Drops below altitude 10° 22:24:09 10° 105° (ESE) 3,709 ? -7.3°
Sets 22:27:22 0° 113° (ESE) 4,678 ? -7.5°
